When you browse on this site, cookies collect data to enhance your experience and personalize the content and advertising you see.
Visit our Privacy Policy to learn more. By continuing to use the site, you agree to this use of cookies and data.
  • In Portugal
  • List of Countries
  • For 7 days
  • Water Temperature
  • Satellite Maps
  • Weather Map
  • Weather Widgets
  • user-avatar
    Login

    Hourly Weather Uida

    Today, 13 December, Thursday

    Time Temperature Precipitation Wind Pressure Humidity
    00:00 +29°C° 0 mm 2 mps 758 mmHg 76%
    01:00 +28°C° 0 mm 2 mps 758 mmHg 77%
    02:00 +28°C° 0 mm 2 mps 758 mmHg 78%
    03:00 +28°C° 0 mm 1 mps 758 mmHg 80%
    04:00 +27°C° 0 mm 1 mps 758 mmHg 81%
    05:00 +27°C° 0 mm 1 mps 758 mmHg 82%
    06:00 +25°C° 0 mm 0 mps 758 mmHg 84%
    07:00 +27°C° 0 mm 0 mps 758 mmHg 74%
    08:00 +30°C° 0 mm 0 mps 759 mmHg 63%
    09:00 +32°C° 0 mm 0 mps 759 mmHg 53%
    10:00 +34°C° 0 mm 0 mps 759 mmHg 46%
    11:00 +37°C° 0 mm 1 mps 758 mmHg 39%
    12:00 +40°C° 0 mm 1 mps 758 mmHg 34%
    13:00 +39°C° 0 mm 2 mps 757 mmHg 34%
    14:00 +39°C° 0 mm 2 mps 757 mmHg 35%
    15:00 +39°C° 0 mm 3 mps 756 mmHg 36%
    16:00 +37°C° 0 mm 3 mps 756 mmHg 44%
    17:00 +35°C° 0 mm 3 mps 757 mmHg 53%
    18:00 +33°C° 0 mm 3 mps 757 mmHg 61%
    19:00 +31°C° 0 mm 3 mps 757 mmHg 63%
    20:00 +31°C° 0 mm 3 mps 758 mmHg 66%
    21:00 +30°C° 0 mm 3 mps 758 mmHg 68%
    22:00 +30°C° 0 mm 3 mps 758 mmHg 71%
    23:00 +29°C° 0 mm 3 mps 758 mmHg 73%

    Tomorrow, 14 December, Friday

    Time Temperature Precipitation Wind Pressure Humidity
    00:00 +29°C° 0 mm 3 mps 758 mmHg 75%
    01:00 +29°C° 0 mm 2 mps 758 mmHg 77%
    02:00 +28°C° 0 mm 2 mps 758 mmHg 78%
    03:00 +28°C° 0 mm 2 mps 757 mmHg 80%
    04:00 +28°C° 0 mm 2 mps 758 mmHg 81%
    05:00 +28°C° 0 mm 2 mps 758 mmHg 83%
    06:00 +27°C° 0 mm 1 mps 758 mmHg 84%
    07:00 +30°C° 0 mm 1 mps 758 mmHg 74%
    08:00 +32°C° 0 mm 1 mps 759 mmHg 65%
    09:00 +34°C° 0 mm 1 mps 759 mmHg 55%
    10:00 +36°C° 0 mm 2 mps 759 mmHg 50%
    11:00 +37°C° 0 mm 2 mps 759 mmHg 45%
    12:00 +38°C° 0 mm 2 mps 758 mmHg 39%
    13:00 +38°C° 0 mm 3 mps 758 mmHg 42%
    14:00 +37°C° 0 mm 4 mps 757 mmHg 46%
    15:00 +37°C° 0 mm 4 mps 756 mmHg 49%
    16:00 +35°C° 0 mm 4 mps 757 mmHg 56%
    17:00 +33°C° 0 mm 5 mps 757 mmHg 62%
    18:00 +32°C° 0 mm 5 mps 757 mmHg 69%
    19:00 +30°C° 0 mm 5 mps 758 mmHg 72%
    20:00 +30°C° 0 mm 4 mps 758 mmHg 75%
    21:00 +30°C° 0 mm 4 mps 759 mmHg 77%
    22:00 +29°C° 0 mm 4 mps 759 mmHg 79%
    23:00 +29°C° 0 mm 4 mps 759 mmHg 80%

    Day after tomorrow, 15 December, Saturday

    Time Temperature Precipitation Wind Pressure Humidity
    00:00 +29°C° 0 mm 4 mps 759 mmHg 81%
    01:00 +29°C° 0 mm 3 mps 758 mmHg 83%
    02:00 +28°C° 0 mm 3 mps 758 mmHg 85%
    03:00 +28°C° 0 mm 3 mps 757 mmHg 86%
    04:00 +28°C° 0 mm 2 mps 758 mmHg 87%
    05:00 +27°C° 0 mm 2 mps 758 mmHg 88%
    06:00 +27°C° 0 mm 2 mps 758 mmHg 89%
    07:00 +29°C° 0 mm 2 mps 759 mmHg 81%
    08:00 +31°C° 0 mm 2 mps 760 mmHg 73%
    09:00 +32°C° 0 mm 1 mps 760 mmHg 65%
    10:00 +33°C° 0 mm 1 mps 760 mmHg 60%
    11:00 +34°C° 0 mm 1 mps 759 mmHg 56%
    12:00 +35°C° 0 mm 1 mps 759 mmHg 51%
    13:00 +37°C° 0 mm 2 mps 758 mmHg 50%
    14:00 +37°C° 0 mm 3 mps 757 mmHg 48%
    15:00 +37°C° 0 mm 3 mps 757 mmHg 47%
    16:00 +35°C° 0 mm 4 mps 757 mmHg 55%
    17:00 +33°C° 0 mm 4 mps 757 mmHg 63%
    18:00 +30°C° 0 mm 5 mps 757 mmHg 71%
    19:00 +30°C° 0 mm 4 mps 758 mmHg 73%
    20:00 +30°C° 0 mm 4 mps 758 mmHg 75%
    21:00 +30°C° 0 mm 4 mps 759 mmHg 76%
    22:00 +29°C° 0 mm 4 mps 759 mmHg 78%
    23:00 +29°C° 0 mm 4 mps 758 mmHg 80%

    16 December, Sunday

    Time Temperature Precipitation Wind Pressure Humidity
    00:00 +29°C° 0 mm 4 mps 758 mmHg 81%
    01:00 +28°C° 0 mm 4 mps 758 mmHg 83%
    02:00 +28°C° 0 mm 4 mps 757 mmHg 84%
    03:00 +28°C° 0 mm 3 mps 757 mmHg 86%
    04:00 +28°C° 0 mm 3 mps 757 mmHg 85%
    05:00 +28°C° 0 mm 3 mps 758 mmHg 84%
    06:00 +28°C° 0 mm 4 mps 758 mmHg 84%
    07:00 +29°C° 0.1 mm 3 mps 759 mmHg 79%
    08:00 +30°C° 0.1 mm 3 mps 759 mmHg 75%
    09:00 +31°C° 0.1 mm 3 mps 760 mmHg 71%
    10:00 +33°C° 0.1 mm 3 mps 759 mmHg 63%
    11:00 +35°C° 0.1 mm 3 mps 758 mmHg 56%
    12:00 +37°C° 0.1 mm 3 mps 758 mmHg 48%
    13:00 +37°C° 0 mm 4 mps 757 mmHg 47%
    14:00 +37°C° 0 mm 4 mps 756 mmHg 46%
    15:00 +37°C° 0 mm 4 mps 756 mmHg 45%
    16:00 +35°C° 0 mm 4 mps 756 mmHg 54%
    17:00 +34°C° 0 mm 5 mps 756 mmHg 62%
    18:00 +32°C° 0 mm 5 mps 757 mmHg 71%
    19:00 +30°C° 0 mm 5 mps 757 mmHg 73%
    20:00 +30°C° 0 mm 5 mps 758 mmHg 75%
    21:00 +30°C° 0 mm 5 mps 759 mmHg 77%
    22:00 +30°C° 0.1 mm 4 mps 758 mmHg 78%
    23:00 +29°C° 0.1 mm 4 mps 758 mmHg 80%

    17 December, Monday

    Time Temperature Precipitation Wind Pressure Humidity
    00:00 +29°C° 0.1 mm 4 mps 758 mmHg 81%
    01:00 +29°C° 0 mm 4 mps 758 mmHg 82%
    02:00 +29°C° 0 mm 4 mps 757 mmHg 84%
    03:00 +28°C° 0 mm 4 mps 757 mmHg 85%
    04:00 +28°C° 0 mm 3 mps 757 mmHg 86%
    05:00 +28°C° 0 mm 3 mps 757 mmHg 87%
    06:00 +28°C° 0 mm 3 mps 758 mmHg 88%
    07:00 +29°C° 0 mm 3 mps 758 mmHg 79%
    08:00 +31°C° 0 mm 3 mps 758 mmHg 70%
    09:00 +34°C° 0 mm 3 mps 759 mmHg 62%
    10:00 +35°C° 0 mm 3 mps 758 mmHg 57%
    11:00 +36°C° 0 mm 3 mps 758 mmHg 53%
    12:00 +37°C° 0 mm 3 mps 757 mmHg 48%
    13:00 +37°C° 0.1 mm 3 mps 757 mmHg 48%
    14:00 +37°C° 0.1 mm 4 mps 756 mmHg 49%
    15:00 +37°C° 0.1 mm 4 mps 755 mmHg 49%
    16:00 +35°C° 0 mm 5 mps 756 mmHg 56%
    17:00 +33°C° 0 mm 5 mps 756 mmHg 64%
    18:00 +32°C° 0 mm 5 mps 756 mmHg 71%
    19:00 +30°C° 0 mm 5 mps 757 mmHg 73%
    20:00 +30°C° 0 mm 4 mps 757 mmHg 75%
    21:00 +30°C° 0 mm 4 mps 758 mmHg 77%
    22:00 +30°C° 0 mm 4 mps 758 mmHg 78%
    23:00 +29°C° 0 mm 4 mps 758 mmHg 80%

    18 December, Tuesday

    Time Temperature Precipitation Wind Pressure Humidity
    00:00 +29°C° 0 mm 3 mps 757 mmHg 81%
    01:00 +29°C° 0 mm 3 mps 757 mmHg 82%
    02:00 +29°C° 0 mm 3 mps 756 mmHg 83%
    03:00 +28°C° 0 mm 3 mps 756 mmHg 84%
    04:00 +28°C° 0 mm 3 mps 756 mmHg 84%
    05:00 +28°C° 0 mm 3 mps 757 mmHg 85%
    06:00 +28°C° 0 mm 2 mps 757 mmHg 85%
    07:00 +30°C° 0 mm 3 mps 758 mmHg 77%
    08:00 +31°C° 0 mm 3 mps 758 mmHg 68%
    09:00 +34°C° 0 mm 3 mps 758 mmHg 59%
    10:00 +35°C° 0.3 mm 3 mps 758 mmHg 54%
    11:00 +37°C° 0.3 mm 3 mps 757 mmHg 49%
    12:00 +38°C° 0.3 mm 3 mps 757 mmHg 44%
    13:00 +37°C° 0.5 mm 3 mps 756 mmHg 46%
    14:00 +36°C° 0.5 mm 4 mps 756 mmHg 49%
    15:00 +35°C° 0.5 mm 4 mps 755 mmHg 51%
    16:00 +34°C° 0 mm 4 mps 755 mmHg 56%
    17:00 +33°C° 0 mm 4 mps 756 mmHg 61%
    18:00 +32°C° 0 mm 4 mps 756 mmHg 65%
    19:00 +32°C° 0 mm 4 mps 757 mmHg 68%
    20:00 +30°C° 0 mm 4 mps 757 mmHg 71%
    21:00 +30°C° 0 mm 4 mps 758 mmHg 74%
    22:00 +29°C° 0 mm 4 mps 757 mmHg 76%
    23:00 +29°C° 0 mm 4 mps 757 mmHg 78%
    Show more